HBKEY EDMK-LSZR

Flight info

Callsign HBKEY
Flight time 0h 25m
Altitude 9000
Route VFR
Aircraft DR40/L-S/L

Departure

Time 2026-04-25 15:31
Airport Kempten-Durach Airfield (EDMK)

Arrival

Time 2026-04-25 15:56
Airport Sankt Gallen Altenrhein Airport (LSZR)
Time Latitude Longitude Altitude Speed Heading
2026-04-25 15:30 47.68677 10.33975 2557 ft 68 kts 184°
2026-04-25 15:30 47.68395 10.34516 2725 ft 88 kts 71°
2026-04-25 15:31 47.68747 10.35256 2896 ft 92 kts 356°
2026-04-25 15:31 47.69398 10.35178 3082 ft 96 kts 340°
2026-04-25 15:31 47.70050 10.34841 3245 ft 100 kts 333°
2026-04-25 15:31 47.70317 10.34049 2956 ft 105 kts 258°
2026-04-25 15:32 47.69739 10.33637 2494 ft 118 kts 173°
2026-04-25 15:32 47.69114 10.33847 2353 ft 66 kts 178°
2026-04-25 15:32 47.68709 10.34000 2431 ft 60 kts 169°
2026-04-25 15:33 47.68569 10.35039 2843 ft 83 kts 22°
2026-04-25 15:33 47.69109 10.34995 2981 ft 82 kts 322°
2026-04-25 15:33 47.69720 10.34843 3192 ft 96 kts 359°
2026-04-25 15:33 47.70413 10.34957 3117 ft 90 kts 348°
2026-04-25 15:34 47.70660 10.34431 2781 ft 63 kts 265°
2026-04-25 15:34 47.70510 10.33932 2705 ft 59 kts 223°
2026-04-25 15:34 47.70089 10.33671 2654 ft 73 kts 200°
2026-04-25 15:34 47.69727 10.33671 2526 ft 78 kts 181°
2026-04-25 15:35 47.68798 10.33955 2374 ft 58 kts 176°
2026-04-25 15:35 47.68355 10.34084 2491 ft 79 kts 167°
2026-04-25 15:35 47.67905 10.33984 2575 ft 74 kts 255°
2026-04-25 15:36 47.67513 10.32543 2886 ft 78 kts 250°
2026-04-25 15:36 47.67330 10.31722 3120 ft 82 kts 254°
2026-04-25 15:36 47.67237 10.30971 3468 ft 73 kts 264°
2026-04-25 15:37 47.67191 10.30167 3693 ft 79 kts 270°
2026-04-25 15:37 47.67199 10.29300 3860 ft 85 kts 271°
2026-04-25 15:37 47.67219 10.28410 3993 ft 88 kts 270°
2026-04-25 15:37 47.67251 10.27483 4099 ft 87 kts 276°
2026-04-25 15:38 47.67168 10.26587 4147 ft 94 kts 250°
2026-04-25 15:38 47.66968 10.25700 4240 ft 91 kts 258°
2026-04-25 15:38 47.66835 10.24785 4386 ft 95 kts 261°
2026-04-25 15:38 47.66689 10.23838 4499 ft 92 kts 261°
2026-04-25 15:39 47.66586 10.22882 4550 ft 96 kts 262°
2026-04-25 15:39 47.66486 10.21905 4565 ft 96 kts 267°
2026-04-25 15:39 47.66489 10.20925 4482 ft 104 kts 275°
2026-04-25 15:39 47.66528 10.19883 4541 ft 100 kts 271°
2026-04-25 15:40 47.66508 10.18850 4496 ft 99 kts 269°
2026-04-25 15:40 47.66487 10.18195 4532 ft 97 kts 268°
2026-04-25 15:40 47.66356 10.16866 4552 ft 98 kts 263°
2026-04-25 15:40 47.66252 10.15888 4585 ft 98 kts 263°
2026-04-25 15:41 47.66140 10.14904 4646 ft 99 kts 262°
2026-04-25 15:41 47.66033 10.13887 4665 ft 95 kts 264°
2026-04-25 15:41 47.65971 10.12910 4580 ft 100 kts 269°
2026-04-25 15:41 47.65978 10.11877 4567 ft 100 kts 271°
2026-04-25 15:42 47.65955 10.10854 4580 ft 101 kts 269°
2026-04-25 15:42 47.65884 10.09811 4553 ft 104 kts 265°
2026-04-25 15:42 47.65772 10.08750 4615 ft 102 kts 265°
2026-04-25 15:42 47.65687 10.07699 4580 ft 104 kts 264°
2026-04-25 15:43 47.65588 10.06672 4680 ft 97 kts 261°
2026-04-25 15:43 47.65454 10.05679 4762 ft 103 kts 260°
2026-04-25 15:43 47.65234 10.04633 4806 ft 107 kts 255°
2026-04-25 15:43 47.65017 10.03573 4882 ft 103 kts 259°
2026-04-25 15:44 47.64851 10.02550 4849 ft 103 kts 259°
2026-04-25 15:44 47.64683 10.01496 4746 ft 107 kts 259°
2026-04-25 15:44 47.64512 10.00426 4697 ft 104 kts 259°
2026-04-25 15:44 47.64362 9.99402 4714 ft 100 kts 260°
2026-04-25 15:45 47.64203 9.98402 4789 ft 97 kts 258°
2026-04-25 15:45 47.64029 9.97441 4832 ft 98 kts 256°
2026-04-25 15:45 47.63878 9.96421 4787 ft 102 kts 262°
2026-04-25 15:45 47.63763 9.95743 4932 ft 99 kts 255°
2026-04-25 15:46 47.63448 9.94479 4999 ft 103 kts 251°
2026-04-25 15:46 47.63196 9.93508 5018 ft 101 kts 250°
2026-04-25 15:46 47.62902 9.92561 5000 ft 101 kts 246°
2026-04-25 15:46 47.62587 9.91625 4991 ft 104 kts 248°
2026-04-25 15:47 47.62253 9.90665 5002 ft 104 kts 247°
2026-04-25 15:47 47.61960 9.89712 5016 ft 100 kts 250°
2026-04-25 15:47 47.61703 9.88746 5098 ft 101 kts 252°
2026-04-25 15:47 47.61452 9.87788 5052 ft 102 kts 251°
2026-04-25 15:48 47.61199 9.86812 5060 ft 100 kts 251°
2026-04-25 15:48 47.60926 9.85867 5065 ft 103 kts 249°
2026-04-25 15:48 47.60610 9.84883 4947 ft 107 kts 250°
2026-04-25 15:48 47.60325 9.83872 4922 ft 105 kts 249°
2026-04-25 15:49 47.60015 9.82928 4985 ft 103 kts 246°
2026-04-25 15:49 47.59657 9.82007 5004 ft 103 kts 242°
2026-04-25 15:49 47.59313 9.81059 4952 ft 106 kts 249°
2026-04-25 15:49 47.59022 9.80076 4905 ft 104 kts 250°
2026-04-25 15:50 47.58765 9.79050 4852 ft 109 kts 254°
2026-04-25 15:50 47.58515 9.77988 4865 ft 108 kts 252°
2026-04-25 15:50 47.58203 9.76945 4731 ft 114 kts 243°
2026-04-25 15:50 47.57758 9.75959 4657 ft 113 kts 240°
2026-04-25 15:51 47.57326 9.74961 4527 ft 117 kts 242°
2026-04-25 15:51 47.57051 9.74277 4454 ft 118 kts 243°
2026-04-25 15:51 47.56528 9.72833 4240 ft 120 kts 245°
2026-04-25 15:51 47.56144 9.71734 4046 ft 121 kts 244°
2026-04-25 15:52 47.55698 9.70689 3881 ft 121 kts 242°
2026-04-25 15:52 47.55286 9.69634 3902 ft 117 kts 243°
2026-04-25 15:52 47.54824 9.68649 3793 ft 122 kts 231°
2026-04-25 15:52 47.54260 9.67710 3735 ft 122 kts 229°
2026-04-25 15:53 47.53685 9.66778 3519 ft 121 kts 234°
2026-04-25 15:53 47.53162 9.65805 3269 ft 120 kts 235°
2026-04-25 15:53 47.52646 9.64838 3058 ft 121 kts 235°
2026-04-25 15:53 47.52146 9.63876 2973 ft 117 kts 236°
2026-04-25 15:54 47.51657 9.62917 2832 ft 118 kts 237°
2026-04-25 15:54 47.51202 9.61924 2751 ft 114 kts 240°
2026-04-25 15:54 47.50773 9.60926 2596 ft 117 kts 242°
2026-04-25 15:54 47.50375 9.59841 2375 ft 124 kts 244°
2026-04-25 15:55 47.50052 9.58647 2198 ft 124 kts 256°
2026-04-25 15:55 47.49940 9.57430 2167 ft 118 kts 267°
2026-04-25 15:55 47.49937 9.56227 2143 ft 116 kts 273°
2026-04-25 15:55 47.49978 9.55044 2132 ft 115 kts 264°
2026-04-25 15:56 47.49326 9.54473 1782 ft 103 kts 188°
2026-04-25 15:56 47.48761 9.54458 1541 ft 78 kts 148°
2026-04-25 15:56 47.48598 9.55157 1330 ft 65 kts 98°
2026-04-25 15:56 47.48545 9.55713 1311 ft 49 kts 100°
2026-04-25 15:57 47.48472 9.56395 1323 ft 85 kts 98°
2026-04-25 15:57 47.48374 9.57317 1509 ft 90 kts 98°
2026-04-25 15:57 47.48546 9.58126 1694 ft 94 kts 31°
2026-04-25 15:57 47.49186 9.58232 1895 ft 91 kts 342°
2026-04-25 15:58 47.49548 9.57476 1955 ft 105 kts 285°
2026-04-25 15:58 47.49775 9.56387 1928 ft 113 kts 290°
2026-04-25 15:58 47.49979 9.55293 2003 ft 110 kts 267°
2026-04-25 15:58 47.49411 9.54609 1825 ft 93 kts 201°
2026-04-25 15:59 47.48873 9.54399 1631 ft 80 kts 172°
2026-04-25 15:59 47.48608 9.55068 1333 ft 78 kts 98°
2026-04-25 15:59 47.48544 9.55710 1311 ft 58 kts 98°
2026-04-25 15:59 47.48464 9.56440 1353 ft 86 kts 98°
2026-04-25 16:00 47.48369 9.57389 1479 ft 97 kts 98°
2026-04-25 16:00 47.48336 9.57710 1535 ft 98 kts 97°
2026-04-25 16:00 47.49156 9.58427 1771 ft 100 kts 356°
2026-04-25 16:00 47.49566 9.57672 1844 ft 108 kts 289°
2026-04-25 16:01 47.49805 9.56576 1780 ft 118 kts 290°
2026-04-25 16:01 47.50025 9.55456 1880 ft 109 kts 264°
2026-04-25 16:01 47.49456 9.54708 1726 ft 123 kts 201°
2026-04-25 16:01 47.48826 9.54526 1639 ft 77 kts 147°
2026-04-25 16:02 47.48592 9.55237 1329 ft 74 kts 97°
2026-04-25 16:02 47.48532 9.55823 1314 ft 45 kts 99°
2026-04-25 16:02 47.48481 9.56290 1308 ft 62 kts 97°
2026-04-25 16:02 47.48394 9.57101 1377 ft 89 kts 99°
2026-04-25 16:03 47.48326 9.58064 1508 ft 98 kts 92°
2026-04-25 16:03 47.48221 9.59029 1765 ft 93 kts 104°
2026-04-25 16:03 47.47962 9.59949 1909 ft 97 kts 127°
2026-04-25 16:03 47.47428 9.60527 2112 ft 97 kts 154°
2026-04-25 16:04 47.46798 9.60861 2238 ft 103 kts 164°
2026-04-25 16:04 47.46106 9.61031 2455 ft 97 kts 177°
2026-04-25 16:04 47.45431 9.61065 2648 ft 99 kts 182°
2026-04-25 16:04 47.44745 9.61020 2835 ft 98 kts 185°
2026-04-25 16:05 47.44040 9.60995 2943 ft 103 kts 182°
2026-04-25 16:05 47.43314 9.61056 3130 ft 106 kts 174°
2026-04-25 16:05 47.41892 9.61348 3435 ft 105 kts 182°
2026-04-25 16:06 47.41173 9.61336 3524 ft 101 kts 188°
2026-04-25 16:06 47.40454 9.61300 3650 ft 105 kts 187°
2026-04-25 16:06 47.39733 9.61292 3838 ft 104 kts 191°
2026-04-25 16:06 47.39008 9.61112 3883 ft 107 kts 202°
2026-04-25 16:07 47.38309 9.60790 4049 ft 101 kts 199°
2026-04-25 16:07 47.37841 9.60614 4018 ft 110 kts 200°
2026-04-25 16:07 47.36902 9.60241 4227 ft 101 kts 201°
2026-04-25 16:07 47.36227 9.59930 4326 ft 103 kts 201°
2026-04-25 16:08 47.35548 9.59574 4444 ft 101 kts 206°
2026-04-25 16:08 47.34907 9.59245 4643 ft 98 kts 202°
2026-04-25 16:08 47.34229 9.59012 4786 ft 102 kts 195°
2026-04-25 16:08 47.33526 9.58867 4891 ft 103 kts 195°
2026-04-25 16:09 47.32813 9.58635 4923 ft 111 kts 201°
2026-04-25 16:09 47.32091 9.58269 4934 ft 111 kts 207°
2026-04-25 16:09 47.31380 9.57862 4978 ft 108 kts 207°
2026-04-25 16:09 47.30718 9.57451 5110 ft 102 kts 211°
2026-04-25 16:10 47.30049 9.57066 5167 ft 105 kts 208°
2026-04-25 16:10 47.29365 9.56732 5294 ft 104 kts 201°
2026-04-25 16:10 47.28664 9.56503 5349 ft 106 kts 197°
2026-04-25 16:10 47.27957 9.56287 5423 ft 104 kts 200°
2026-04-25 16:11 47.27250 9.56009 5471 ft 104 kts 199°
2026-04-25 16:11 47.26537 9.55797 5517 ft 106 kts 195°
2026-04-25 16:11 47.25818 9.55587 5613 ft 104 kts 197°
2026-04-25 16:11 47.25114 9.55298 5689 ft 105 kts 205°
2026-04-25 16:12 47.24428 9.54938 5754 ft 104 kts 205°
2026-04-25 16:12 47.23747 9.54609 5888 ft 103 kts 199°
2026-04-25 16:12 47.23040 9.54426 6010 ft 105 kts 191°
2026-04-25 16:12 47.22552 9.54361 6049 ft 104 kts 191°
2026-04-25 16:13 47.21576 9.54137 6048 ft 107 kts 194°
2026-04-25 16:13 47.20841 9.53978 6101 ft 107 kts 191°
2026-04-25 16:13 47.20098 9.53871 6166 ft 107 kts 191°
2026-04-25 16:13 47.19442 9.53768 6240 ft 106 kts 189°
2026-04-25 16:14 47.18695 9.53694 6331 ft 105 kts 188°
2026-04-25 16:14 47.17951 9.53668 6300 ft 111 kts 184°
2026-04-25 16:14 47.17181 9.53640 6304 ft 111 kts 187°
2026-04-25 16:14 47.16422 9.53593 6359 ft 109 kts 185°
2026-04-25 16:15 47.15657 9.53517 6397 ft 111 kts 192°
2026-04-25 16:15 47.14904 9.53303 6438 ft 110 kts 192°
2026-04-25 16:15 47.14153 9.53221 6412 ft 109 kts 189°
2026-04-25 16:15 47.13390 9.53161 6372 ft 111 kts 186°
2026-04-25 16:16 47.12612 9.53161 6350 ft 112 kts 181°
2026-04-25 16:16 47.11826 9.53113 6313 ft 114 kts 187°
2026-04-25 16:16 47.11057 9.53011 6357 ft 111 kts 193°
2026-04-25 16:16 47.10323 9.52730 6417 ft 109 kts 203°
2026-04-25 16:17 47.09603 9.52458 6467 ft 108 kts 189°
2026-04-25 16:17 47.08843 9.52404 6481 ft 110 kts 179°
2026-04-25 16:17 47.08128 9.52532 6659 ft 102 kts 171°
2026-04-25 16:17 47.07436 9.52776 6719 ft 102 kts 168°
2026-04-25 16:18 47.06743 9.52995 6759 ft 102 kts 171°
2026-04-25 16:18 47.06513 9.53041 6767 ft 103 kts 176°
2026-04-25 16:18 47.05309 9.53255 6977 ft 105 kts 173°
2026-04-25 16:18 47.04588 9.53404 6982 ft 106 kts 176°
2026-04-25 16:19 47.03851 9.53512 7005 ft 106 kts 178°
2026-04-25 16:19 47.03121 9.53593 7031 ft 105 kts 181°
2026-04-25 16:19 47.02391 9.53582 7093 ft 104 kts 185°
2026-04-25 16:20 47.00983 9.53436 7184 ft 101 kts 183°
2026-04-25 16:20 47.00272 9.53449 7199 ft 105 kts 182°
2026-04-25 16:20 46.98816 9.53480 7310 ft 105 kts 184°
2026-04-25 16:21 46.98091 9.53473 7352 ft 104 kts 185°
2026-04-25 16:21 46.97368 9.53462 7377 ft 103 kts 184°
2026-04-25 16:21 46.96651 9.53478 7388 ft 102 kts 183°
2026-04-25 16:21 46.95949 9.53505 7453 ft 99 kts 180°
2026-04-25 16:22 46.95265 9.53544 7488 ft 97 kts 181°
2026-04-25 16:22 46.94581 9.53528 7557 ft 100 kts 182°
2026-04-25 16:22 46.93890 9.53517 7679 ft 99 kts 182°
2026-04-25 16:22 46.93204 9.53534 7802 ft 98 kts 180°
2026-04-25 16:23 46.92530 9.53562 7936 ft 98 kts 179°
2026-04-25 16:23 46.91846 9.53625 8044 ft 99 kts 176°
2026-04-25 16:23 46.91163 9.53746 8143 ft 99 kts 174°
2026-04-25 16:23 46.90479 9.53890 8231 ft 99 kts 173°
2026-04-25 16:24 46.89796 9.54034 8339 ft 99 kts 173°
2026-04-25 16:24 46.89115 9.54182 8451 ft 99 kts 173°
2026-04-25 16:24 46.88435 9.54364 8572 ft 99 kts 169°
2026-04-25 16:24 46.87751 9.54583 8633 ft 103 kts 169°
2026-04-25 16:25 46.87050 9.54790 8707 ft 102 kts 172°
2026-04-25 16:25 46.86586 9.54884 8767 ft 102 kts 175°
2026-04-25 16:25 46.85641 9.54960 8851 ft 104 kts 179°
2026-04-25 16:25 46.84915 9.55001 8908 ft 104 kts 181°
2026-04-25 16:26 46.84188 9.54998 8961 ft 104 kts 181°
2026-04-25 16:26 46.83474 9.55001 9062 ft 103 kts 181°
2026-04-25 16:26 46.82742 9.55004 9068 ft 107 kts 176°
2026-04-25 16:26 46.82014 9.55190 9123 ft 106 kts 171°
2026-04-25 16:27 46.81298 9.55366 9169 ft 106 kts 173°
2026-04-25 16:27 46.80566 9.55522 9193 ft 107 kts 174°
2026-04-25 16:27 46.79827 9.55665 9227 ft 107 kts 174°
2026-04-25 16:27 46.79092 9.55800 9247 ft 106 kts 173°
2026-04-25 16:28 46.78369 9.55952 9310 ft 104 kts 174°
2026-04-25 16:28 46.77649 9.56067 9399 ft 103 kts 177°
2026-04-25 16:28 46.76919 9.56152 9400 ft 108 kts 174°
2026-04-25 16:28 46.76180 9.56313 9443 ft 107 kts 174°
2026-04-25 16:29 46.75447 9.56489 9465 ft 107 kts 172°
2026-04-25 16:29 46.74717 9.56677 9464 ft 109 kts 171°
2026-04-25 16:29 46.73974 9.56859 9460 ft 109 kts 173°
2026-04-25 16:29 46.73225 9.56973 9450 ft 108 kts 179°
2026-04-25 16:30 46.72476 9.57024 9428 ft 109 kts 175°
2026-04-25 16:30 46.71731 9.57187 9428 ft 107 kts 174°
2026-04-25 16:30 46.70992 9.57348 9439 ft 108 kts 170°
2026-04-25 16:30 46.70255 9.57588 9453 ft 109 kts 168°
2026-04-25 16:31 46.69523 9.57852 9498 ft 108 kts 168°
2026-04-25 16:31 46.68806 9.58093 9528 ft 106 kts 170°
2026-04-25 16:31 46.68071 9.58262 9509 ft 108 kts 175°
2026-04-25 16:31 46.67326 9.58416 9502 ft 107 kts 171°
2026-04-25 16:32 46.66598 9.58613 9539 ft 106 kts 172°
2026-04-25 16:32 46.65868 9.58792 9550 ft 106 kts 173°
2026-04-25 16:32 46.65131 9.58924 9502 ft 109 kts 170°
2026-04-25 16:32 46.64403 9.59224 9545 ft 107 kts 164°
2026-04-25 16:33 46.63691 9.59513 9591 ft 107 kts 169°
2026-04-25 16:33 46.62941 9.59685 9586 ft 110 kts 173°
2026-04-25 16:33 46.62203 9.59832 9596 ft 108 kts 174°
2026-04-25 16:33 46.61452 9.59955 9562 ft 109 kts 174°
2026-04-25 16:34 46.60705 9.60110 9555 ft 108 kts 173°
2026-04-25 16:34 46.59959 9.60281 9550 ft 109 kts 175°
2026-04-25 16:34 46.59196 9.60414 9507 ft 112 kts 176°
2026-04-25 16:34 46.58416 9.60492 9470 ft 111 kts 179°
2026-04-25 16:35 46.57652 9.60635 9439 ft 110 kts 167°
2026-04-25 16:35 46.56928 9.60955 9454 ft 107 kts 163°
2026-04-25 16:35 46.56234 9.61275 9531 ft 100 kts 163°
2026-04-25 16:35 46.55566 9.61576 9494 ft 106 kts 166°
2026-04-25 16:36 46.54829 9.61838 9420 ft 111 kts 168°
2026-04-25 16:36 46.54575 9.61923 9403 ft 111 kts 168°
2026-04-25 16:36 46.53365 9.62336 9444 ft 105 kts 169°
2026-04-25 16:36 46.52646 9.62644 9392 ft 112 kts 160°
2026-04-25 16:37 46.51935 9.63128 9382 ft 112 kts 154°
2026-04-25 16:37 46.51237 9.63656 9333 ft 113 kts 154°
2026-04-25 16:37 46.50567 9.64235 9339 ft 111 kts 145°
2026-04-25 16:37 46.50009 9.64961 9403 ft 108 kts 136°
2026-04-25 16:38 46.49515 9.65735 9541 ft 103 kts 131°
2026-04-25 16:38 46.49118 9.66615 9598 ft 105 kts 117°
2026-04-25 16:38 46.48828 9.67612 9576 ft 108 kts 112°
2026-04-25 16:38 46.48530 9.68618 9518 ft 109 kts 115°
2026-04-25 16:39 46.48225 9.69623 9449 ft 110 kts 112°
2026-04-25 16:39 46.47984 9.70682 9393 ft 110 kts 106°
2026-04-25 16:39 46.47795 9.71786 9278 ft 115 kts 104°
2026-04-25 16:39 46.47608 9.72951 9113 ft 121 kts 105°
2026-04-25 16:40 46.47390 9.74133 8921 ft 124 kts 106°
2026-04-25 16:40 46.47166 9.75347 8718 ft 126 kts 106°
2026-04-25 16:40 46.46940 9.76579 8546 ft 125 kts 103°
2026-04-25 16:40 46.46889 9.77848 8311 ft 129 kts 83°
2026-04-25 16:41 46.47141 9.79080 8104 ft 125 kts 67°
2026-04-25 16:41 46.47255 9.79449 8071 ft 123 kts 65°
2026-04-25 16:41 46.48361 9.82307 7704 ft 119 kts 49°
2026-04-25 16:42 46.48911 9.83185 7458 ft 118 kts 50°
2026-04-25 16:42 46.49406 9.84165 7274 ft 124 kts 54°
2026-04-25 16:42 46.49943 9.85158 6965 ft 122 kts 50°
2026-04-25 16:42 46.50525 9.86017 6593 ft 116 kts 36°
2026-04-25 16:43 46.51169 9.86572 6297 ft 100 kts 29°
2026-04-25 16:43 46.51679 9.86996 6043 ft 75 kts 28°
2026-04-25 16:43 46.52131 9.87356 5726 ft 68 kts 27°
2026-04-25 16:43 46.52510 9.87656 5654 ft 62 kts 28°
2026-04-25 16:44 46.52851 9.87932 5602 ft 40 kts 28°
2026-04-25 16:44 46.52981 9.87994 5603 ft 15 kts 314°
2026-04-25 16:44 46.53045 9.87931 5601 ft 6 kts 319°
2026-04-25 16:44 46.53040 9.87908 5601 ft 0 kts 218°
2026-04-25 16:45 46.53036 9.87905 5601 ft 0 kts 208°
2026-04-25 16:47 46.53028 9.87911 5604 ft 6 kts 119°
2026-04-25 16:47 46.52974 9.88018 5600 ft 24 kts 121°
2026-04-25 16:47 46.52889 9.88105 5599 ft 12 kts 207°
2026-04-25 16:48 46.52770 9.88008 5600 ft 24 kts 212°
2026-04-25 16:48 46.52714 9.87900 5602 ft 0 kts 321°
2026-04-25 16:50 46.52723 9.87887 5602 ft 10 kts 307°
2026-04-25 16:50 46.52811 9.87895 5601 ft 25 kts 29°
2026-04-25 16:51 46.53109 9.88141 5613 ft 70 kts 29°
2026-04-25 16:51 46.53601 9.88548 5701 ft 89 kts 30°
2026-04-25 16:51 46.54170 9.89022 5793 ft 98 kts 30°
2026-04-25 16:51 46.54367 9.89194 5847 ft 97 kts 31°
2026-04-25 16:52 46.55335 9.90080 6064 ft 100 kts 34°
2026-04-25 16:52 46.55886 9.90699 6199 ft 100 kts 40°
2026-04-25 16:52 46.56410 9.91366 6340 ft 100 kts 40°
2026-04-25 16:52 46.56944 9.92016 6475 ft 100 kts 40°
2026-04-25 16:53 46.57931 9.93506 6691 ft 102 kts 49°
2026-04-25 16:53 46.58392 9.94331 6753 ft 106 kts 52°
2026-04-25 16:53 46.58856 9.95189 6800 ft 109 kts 50°
2026-04-25 16:54 46.59357 9.96015 6896 ft 106 kts 47°
2026-04-25 16:54 46.59907 9.96743 6978 ft 106 kts 37°
2026-04-25 16:54 46.60491 9.97362 7121 ft 102 kts 34°
2026-04-25 16:54 46.61076 9.97930 7226 ft 102 kts 32°
2026-04-25 16:55 46.61666 9.98499 7327 ft 102 kts 35°
2026-04-25 16:55 46.62226 9.99153 7370 ft 104 kts 43°
2026-04-25 16:55 46.62747 9.99867 7462 ft 102 kts 42°
2026-04-25 16:55 46.63282 10.00556 7515 ft 103 kts 41°
2026-04-25 16:56 46.63817 10.01265 7566 ft 106 kts 43°
2026-04-25 16:56 46.64359 10.02019 7570 ft 109 kts 41°
2026-04-25 16:56 46.64915 10.02730 7641 ft 106 kts 40°
2026-04-25 16:56 46.65477 10.03418 7679 ft 108 kts 41°
2026-04-25 16:57 46.66013 10.04155 7764 ft 106 kts 44°
2026-04-25 16:57 46.66190 10.04407 7791 ft 105 kts 44°
2026-04-25 16:57 46.67081 10.05654 7864 ft 106 kts 40°
2026-04-25 16:57 46.67713 10.06194 7900 ft 107 kts 21°
2026-04-25 16:58 46.68407 10.06503 7949 ft 106 kts 13°
2026-04-25 16:58 46.69112 10.06768 8010 ft 103 kts 16°
2026-04-25 16:58 46.69797 10.07080 8038 ft 103 kts 16°
2026-04-25 16:58 46.70484 10.07322 8055 ft 104 kts 10°
2026-04-25 16:59 46.71206 10.07474 8054 ft 106 kts
2026-04-25 16:59 46.71949 10.07510 8062 ft 106 kts
2026-04-25 16:59 46.72680 10.07520 8094 ft 106 kts 356°
2026-04-25 16:59 46.73397 10.07366 8155 ft 103 kts 346°
2026-04-25 17:00 46.73841 10.07120 8172 ft 103 kts 332°
2026-04-25 17:00 46.74591 10.06265 8217 ft 103 kts 311°
2026-04-25 17:00 46.75008 10.05429 8263 ft 102 kts 298°
2026-04-25 17:00 46.75250 10.04462 8314 ft 101 kts 285°
2026-04-25 17:01 46.75359 10.03449 8359 ft 102 kts 275°
2026-04-25 17:01 46.75339 10.02427 8417 ft 102 kts 263°
2026-04-25 17:01 46.75207 10.01420 8464 ft 101 kts 258°
2026-04-25 17:01 46.75061 10.00406 8485 ft 103 kts 260°
2026-04-25 17:02 46.74910 9.99386 8488 ft 104 kts 258°
2026-04-25 17:02 46.74786 9.98344 8458 ft 106 kts 262°
2026-04-25 17:02 46.74729 9.97282 8492 ft 103 kts 272°
2026-04-25 17:02 46.74839 9.96241 8474 ft 106 kts 284°
2026-04-25 17:03 46.75077 9.95230 8486 ft 105 kts 301°
2026-04-25 17:03 46.75621 9.94485 8413 ft 111 kts 323°
2026-04-25 17:03 46.76251 9.93908 8466 ft 106 kts 333°
2026-04-25 17:03 46.76938 9.93492 8430 ft 108 kts 338°
2026-04-25 17:04 46.77641 9.93118 8410 ft 108 kts 341°
2026-04-25 17:04 46.78383 9.92779 8342 ft 111 kts 340°
2026-04-25 17:04 46.79069 9.92329 8400 ft 106 kts 328°
2026-04-25 17:04 46.79700 9.91792 8446 ft 106 kts 332°
2026-04-25 17:05 46.80378 9.91339 8459 ft 107 kts 339°
2026-04-25 17:05 46.81804 9.90660 8339 ft 114 kts 322°
2026-04-25 17:05 46.82421 9.89940 8270 ft 112 kts 323°
2026-04-25 17:06 46.83049 9.89245 8193 ft 112 kts 323°
2026-04-25 17:06 46.83687 9.88593 8051 ft 118 kts 324°
2026-04-25 17:06 46.84391 9.87837 7829 ft 118 kts 324°
2026-04-25 17:06 46.85036 9.87246 7925 ft 109 kts 325°
2026-04-25 17:07 46.85663 9.86573 7863 ft 110 kts 325°
2026-04-25 17:07 46.86292 9.85965 7804 ft 114 kts 322°
2026-04-25 17:07 46.86899 9.85237 7763 ft 113 kts 320°
2026-04-25 17:07 46.87518 9.84504 7650 ft 116 kts 319°
2026-04-25 17:08 46.88084 9.83670 7589 ft 113 kts 310°
2026-04-25 17:08 46.88570 9.82748 7487 ft 116 kts 304°
2026-04-25 17:08 46.88924 9.81950 7455 ft 114 kts 302°
2026-04-25 17:08 46.89339 9.80975 7422 ft 113 kts 302°
2026-04-25 17:09 46.89745 9.79991 7384 ft 113 kts 301°
2026-04-25 17:09 46.90146 9.79007 7358 ft 113 kts 301°
2026-04-25 17:09 46.90523 9.78011 7337 ft 112 kts 298°
2026-04-25 17:09 46.90903 9.77030 7291 ft 114 kts 301°
2026-04-25 17:10 46.91311 9.76015 7198 ft 116 kts 300°
2026-04-25 17:10 46.91708 9.75004 7149 ft 115 kts 300°
2026-04-25 17:10 46.92099 9.73963 7073 ft 116 kts 299°
2026-04-25 17:10 46.92501 9.73005 7148 ft 110 kts 304°
2026-04-25 17:11 46.92943 9.72028 7051 ft 117 kts 305°
2026-04-25 17:11 46.93432 9.71086 7019 ft 116 kts 308°
2026-04-25 17:11 46.93928 9.70135 6894 ft 119 kts 306°
2026-04-25 17:11 46.94406 9.69154 6790 ft 118 kts 305°
2026-04-25 17:12 46.94783 9.68060 6543 ft 124 kts 292°
2026-04-25 17:12 46.95166 9.66924 6324 ft 125 kts 298°
2026-04-25 17:12 46.95567 9.65791 6109 ft 127 kts 297°
2026-04-25 17:12 46.95956 9.64616 5803 ft 129 kts 296°
2026-04-25 17:13 46.96326 9.63423 5544 ft 128 kts 296°
2026-04-25 17:13 46.96458 9.63029 5479 ft 126 kts 296°
2026-04-25 17:13 46.97186 9.61195 5162 ft 126 kts 304°
2026-04-25 17:13 46.97701 9.60159 4938 ft 127 kts 308°
2026-04-25 17:14 46.98283 9.59152 4614 ft 132 kts 312°
2026-04-25 17:14 46.98860 9.58172 4482 ft 124 kts 308°
2026-04-25 17:14 46.99401 9.57215 4410 ft 122 kts 310°
2026-04-25 17:14 46.99965 9.56320 4331 ft 122 kts 316°
2026-04-25 17:15 47.00608 9.55454 4097 ft 128 kts 315°
2026-04-25 17:15 47.01227 9.54528 3890 ft 127 kts 315°
2026-04-25 17:15 47.01657 9.53389 3478 ft 134 kts 279°
2026-04-25 17:15 47.01504 9.52090 3010 ft 125 kts 250°
2026-04-25 17:16 47.01242 9.50965 2661 ft 107 kts 259°
2026-04-25 17:16 47.01188 9.50113 2340 ft 74 kts 269°
2026-04-25 17:16 47.01220 9.49378 1980 ft 71 kts 277°
2026-04-25 17:16 47.01306 9.48726 1737 ft 62 kts 288°
2026-04-25 17:17 47.01490 9.48190 1647 ft 56 kts 299°
2026-04-25 17:17 47.01703 9.47623 1877 ft 70 kts 298°
2026-04-25 17:17 47.02119 9.47040 1988 ft 97 kts 338°
2026-04-25 17:17 47.02808 9.46696 2053 ft 109 kts 341°
2026-04-25 17:18 47.03530 9.46378 2181 ft 109 kts 347°
2026-04-25 17:18 47.04268 9.46385 2339 ft 109 kts 22°
2026-04-25 17:18 47.04700 9.47261 2431 ft 113 kts 85°
2026-04-25 17:18 47.04336 9.48257 2416 ft 118 kts 142°
2026-04-25 17:19 47.03675 9.48922 2454 ft 109 kts 148°
2026-04-25 17:19 47.03085 9.49453 2343 ft 93 kts 153°
2026-04-25 17:19 47.02564 9.49818 2220 ft 72 kts 162°
2026-04-25 17:19 47.02044 9.49924 2105 ft 78 kts 187°
2026-04-25 17:20 47.01581 9.49649 1910 ft 71 kts 218°
2026-04-25 17:20 47.01261 9.49103 1752 ft 73 kts 261°
2026-04-25 17:20 47.01393 9.48442 1620 ft 57 kts 300°
2026-04-25 17:20 47.01503 9.48146 1621 ft 5 kts 296°
2026-04-25 17:21 47.01488 9.48205 1622 ft 14 kts 120°
2026-04-25 17:21 47.01436 9.48331 1620 ft 14 kts 119°
2026-04-25 17:21 47.01428 9.48412 1620 ft 7 kts 38°
2026-04-25 17:21 47.01447 9.48452 1619 ft 4 kts 130°
2026-04-25 17:22 47.01438 9.48467 1619 ft 0 kts 131°